• In Romania
  • List of Countries
  • For 7 days
  • Water Temperature
  • Satellite Maps
  • Weather Map
  • Weather Widgets
  • user-avatar
    Login

    Hourly Weather Albany

    Today, 20 January, Saturday

    Time Temperature Precipitation Wind Pressure Humidity
    00:00 +15°C° 0 mm 5 mps 759 mmHg 79%
    01:00 +15°C° 0 mm 5 mps 758 mmHg 81%
    02:00 +15°C° 0 mm 4 mps 758 mmHg 84%
    03:00 +15°C° 0 mm 4 mps 758 mmHg 85%
    04:00 +15°C° 0 mm 4 mps 758 mmHg 87%
    05:00 +15°C° 0 mm 4 mps 758 mmHg 88%
    06:00 +17°C° 0 mm 4 mps 758 mmHg 82%
    07:00 +19°C° 0 mm 4 mps 758 mmHg 76%
    08:00 +20°C° 0 mm 5 mps 758 mmHg 68%
    09:00 +22°C° 0 mm 5 mps 757 mmHg 63%
    10:00 +25°C° 0 mm 5 mps 757 mmHg 57%
    11:00 +27°C° 0 mm 5 mps 757 mmHg 52%
    12:00 +27°C° 0 mm 5 mps 756 mmHg 51%
    13:00 +28°C° 0 mm 5 mps 756 mmHg 50%
    14:00 +29°C° 0 mm 6 mps 755 mmHg 49%
    15:00 +28°C° 0 mm 6 mps 755 mmHg 54%
    16:00 +27°C° 0 mm 6 mps 755 mmHg 58%
    17:00 +26°C° 0 mm 6 mps 755 mmHg 63%
    18:00 +23°C° 0 mm 6 mps 755 mmHg 70%
    19:00 +22°C° 0 mm 6 mps 755 mmHg 76%
    20:00 +20°C° 0 mm 6 mps 755 mmHg 83%
    21:00 +20°C° 0 mm 5 mps 755 mmHg 84%
    22:00 +19°C° 0 mm 5 mps 755 mmHg 86%
    23:00 +19°C° 0 mm 5 mps 755 mmHg 87%

    Tomorrow, 21 January, Sunday

    Time Temperature Precipitation Wind Pressure Humidity
    00:00 +19°C° 0 mm 4 mps 755 mmHg 87%
    01:00 +19°C° 0 mm 4 mps 755 mmHg 87%
    02:00 +19°C° 0 mm 3 mps 755 mmHg 87%
    03:00 +19°C° 0 mm 3 mps 755 mmHg 87%
    04:00 +19°C° 0 mm 4 mps 755 mmHg 86%
    05:00 +19°C° 0 mm 4 mps 755 mmHg 86%
    06:00 +20°C° 0 mm 4 mps 755 mmHg 84%
    07:00 +20°C° 0 mm 4 mps 755 mmHg 83%
    08:00 +20°C° 0 mm 5 mps 756 mmHg 81%
    09:00 +20°C° 0 mm 5 mps 756 mmHg 79%
    10:00 +21°C° 0 mm 5 mps 756 mmHg 77%
    11:00 +21°C° 0 mm 4 mps 756 mmHg 75%
    12:00 +21°C° 0 mm 5 mps 756 mmHg 72%
    13:00 +21°C° 0 mm 5 mps 756 mmHg 70%
    14:00 +21°C° 0 mm 5 mps 756 mmHg 68%
    15:00 +22°C° 0 mm 5 mps 756 mmHg 67%
    16:00 +22°C° 0 mm 5 mps 756 mmHg 65%
    17:00 +22°C° 0 mm 5 mps 756 mmHg 64%
    18:00 +21°C° 0 mm 5 mps 757 mmHg 68%
    19:00 +19°C° 0 mm 4 mps 757 mmHg 73%
    20:00 +18°C° 0 mm 4 mps 757 mmHg 77%
    21:00 +18°C° 0 mm 4 mps 757 mmHg 79%
    22:00 +18°C° 0 mm 4 mps 757 mmHg 81%
    23:00 +17°C° 0 mm 4 mps 758 mmHg 83%

    Day after tomorrow, 22 January, Monday

    Time Temperature Precipitation Wind Pressure Humidity
    00:00 +17°C° 0 mm 3 mps 757 mmHg 83%
    01:00 +17°C° 0 mm 3 mps 757 mmHg 83%
    02:00 +17°C° 0 mm 3 mps 757 mmHg 83%
    03:00 +17°C° 0 mm 3 mps 757 mmHg 82%
    04:00 +17°C° 0 mm 3 mps 757 mmHg 82%
    05:00 +17°C° 0 mm 3 mps 757 mmHg 82%
    06:00 +18°C° 0 mm 3 mps 758 mmHg 76%
    07:00 +19°C° 0 mm 3 mps 758 mmHg 71%
    08:00 +20°C° 0 mm 3 mps 758 mmHg 65%
    09:00 +21°C° 0 mm 3 mps 758 mmHg 61%
    10:00 +22°C° 0 mm 3 mps 758 mmHg 56%
    11:00 +25°C° 0 mm 4 mps 758 mmHg 51%
    12:00 +25°C° 0 mm 4 mps 758 mmHg 51%
    13:00 +25°C° 0 mm 4 mps 757 mmHg 51%
    14:00 +25°C° 0 mm 4 mps 757 mmHg 51%
    15:00 +25°C° 0 mm 4 mps 757 mmHg 54%
    16:00 +23°C° 0 mm 4 mps 756 mmHg 56%
    17:00 +22°C° 0 mm 4 mps 756 mmHg 59%
    18:00 +21°C° 0 mm 4 mps 757 mmHg 64%
    19:00 +19°C° 0 mm 4 mps 757 mmHg 70%
    20:00 +18°C° 0 mm 3 mps 757 mmHg 75%
    21:00 +18°C° 0 mm 3 mps 757 mmHg 77%
    22:00 +17°C° 0 mm 3 mps 757 mmHg 80%
    23:00 +17°C° 0 mm 3 mps 758 mmHg 83%

    23 January, Tuesday

    Time Temperature Precipitation Wind Pressure Humidity
    00:00 +16°C° 0 mm 2 mps 757 mmHg 84%
    01:00 +16°C° 0 mm 2 mps 757 mmHg 85%
    02:00 +16°C° 0 mm 2 mps 756 mmHg 87%
    03:00 +16°C° 0 mm 2 mps 756 mmHg 88%
    04:00 +15°C° 0 mm 2 mps 756 mmHg 89%
    05:00 +15°C° 0 mm 1 mps 756 mmHg 90%
    06:00 +18°C° 0 mm 1 mps 757 mmHg 82%
    07:00 +19°C° 0 mm 1 mps 757 mmHg 74%
    08:00 +21°C° 0 mm 1 mps 757 mmHg 66%
    09:00 +21°C° 0 mm 2 mps 757 mmHg 61%
    10:00 +24°C° 0 mm 3 mps 757 mmHg 55%
    11:00 +25°C° 0 mm 3 mps 757 mmHg 50%
    12:00 +25°C° 0 mm 4 mps 757 mmHg 50%
    13:00 +25°C° 0 mm 4 mps 756 mmHg 51%
    14:00 +25°C° 0 mm 5 mps 756 mmHg 51%
    15:00 +25°C° 0 mm 5 mps 756 mmHg 54%
    16:00 +23°C° 0 mm 5 mps 756 mmHg 57%
    17:00 +22°C° 0 mm 5 mps 756 mmHg 59%
    18:00 +21°C° 0 mm 4 mps 756 mmHg 64%
    19:00 +19°C° 0 mm 4 mps 757 mmHg 69%
    20:00 +18°C° 0 mm 4 mps 757 mmHg 74%
    21:00 +18°C° 0 mm 3 mps 757 mmHg 75%
    22:00 +18°C° 0 mm 3 mps 757 mmHg 77%
    23:00 +17°C° 0 mm 3 mps 757 mmHg 78%

    24 January, Wednesday

    Time Temperature Precipitation Wind Pressure Humidity
    00:00 +17°C° 0 mm 2 mps 756 mmHg 80%
    01:00 +17°C° 0 mm 2 mps 756 mmHg 81%
    02:00 +16°C° 0 mm 2 mps 755 mmHg 82%
    03:00 +16°C° 0 mm 2 mps 755 mmHg 84%
    04:00 +16°C° 0 mm 1 mps 755 mmHg 85%
    05:00 +15°C° 0 mm 1 mps 755 mmHg 86%
    06:00 +18°C° 0 mm 1 mps 755 mmHg 79%
    07:00 +18°C° 0 mm 2 mps 755 mmHg 71%
    08:00 +20°C° 0 mm 2 mps 756 mmHg 64%
    09:00 +23°C° 0 mm 2 mps 755 mmHg 57%
    10:00 +24°C° 0 mm 2 mps 755 mmHg 50%
    11:00 +26°C° 0 mm 2 mps 754 mmHg 43%
    12:00 +26°C° 0 mm 3 mps 754 mmHg 44%
    13:00 +26°C° 0 mm 4 mps 753 mmHg 45%
    14:00 +27°C° 0 mm 4 mps 753 mmHg 46%
    15:00 +26°C° 0 mm 4 mps 753 mmHg 49%
    16:00 +23°C° 0 mm 4 mps 752 mmHg 52%
    17:00 +22°C° 0 mm 4 mps 752 mmHg 55%
    18:00 +21°C° 0 mm 4 mps 752 mmHg 60%
    19:00 +20°C° 0 mm 3 mps 753 mmHg 65%
    20:00 +18°C° 0 mm 3 mps 753 mmHg 70%
    21:00 +18°C° 0 mm 3 mps 753 mmHg 73%
    22:00 +17°C° 0 mm 2 mps 753 mmHg 76%
    23:00 +17°C° 0 mm 2 mps 753 mmHg 79%

    25 January, Thursday

    Time Temperature Precipitation Wind Pressure Humidity
    00:00 +17°C° 0 mm 2 mps 753 mmHg 79%
    01:00 +18°C° 0 mm 1 mps 753 mmHg 79%
    02:00 +18°C° 0 mm 1 mps 752 mmHg 79%
    03:00 +16°C° 0 mm 1 mps 752 mmHg 81%
    04:00 +16°C° 0 mm 1 mps 752 mmHg 83%
    05:00 +14°C° 0 mm 0 mps 752 mmHg 86%
    06:00 +18°C° 0 mm 1 mps 752 mmHg 77%
    07:00 +20°C° 0 mm 1 mps 753 mmHg 69%
    08:00 +20°C° 0 mm 2 mps 753 mmHg 61%
    09:00 +23°C° 0 mm 2 mps 752 mmHg 56%
    10:00 +24°C° 0 mm 2 mps 752 mmHg 50%
    11:00 +26°C° 0 mm 3 mps 752 mmHg 44%
    12:00 +26°C° 0 mm 3 mps 751 mmHg 45%
    13:00 +26°C° 0 mm 3 mps 751 mmHg 45%
    14:00 +27°C° 0 mm 3 mps 751 mmHg 46%
    15:00 +26°C° 0 mm 3 mps 751 mmHg 48%
    16:00 +25°C° 0 mm 4 mps 750 mmHg 51%
    17:00 +23°C° 0 mm 4 mps 750 mmHg 54%
    18:00 +22°C° 0 mm 3 mps 751 mmHg 60%
    19:00 +20°C° 0 mm 2 mps 751 mmHg 66%
    20:00 +19°C° 0 mm 2 mps 751 mmHg 71%
    21:00 +19°C° 0 mm 1 mps 751 mmHg 74%
    22:00 +19°C° 0 mm 1 mps 751 mmHg 77%
    23:00 +18°C° 0 mm 1 mps 751 mmHg 79%
    Show more